AFR33J FMEP-FMEP

Flight info

Callsign AFR33J
Flight time 0h 26m
Altitude 3000
Route DCT
Aircraft P28B/L-SDGRY/S

Departure

Time 2026-05-06 04:26
Airport Saint-Pierre Pierrefonds Airport (FMEP)

Arrival

Time 2026-05-06 04:52
Airport Saint-Pierre Pierrefonds Airport (FMEP)
Time Latitude Longitude Altitude Speed Heading
2026-05-06 04:19 -21.32010 55.42663 67 ft 0 kts 220°
2026-05-06 04:23 -21.32014 55.42660 67 ft 3 kts 208°
2026-05-06 04:24 -21.32058 55.42651 64 ft 9 kts 216°
2026-05-06 04:24 -21.32117 55.42600 64 ft 13 kts 216°
2026-05-06 04:24 -21.32125 55.42516 58 ft 15 kts 311°
2026-05-06 04:24 -21.31952 55.42294 61 ft 63 kts 309°
2026-05-06 04:25 -21.31611 55.41835 129 ft 88 kts 312°
2026-05-06 04:25 -21.31211 55.41316 303 ft 94 kts 312°
2026-05-06 04:25 -21.30770 55.40747 450 ft 102 kts 311°
2026-05-06 04:25 -21.30288 55.40166 576 ft 109 kts 316°
2026-05-06 04:26 -21.29728 55.39546 687 ft 118 kts 318°
2026-05-06 04:26 -21.29002 55.39477 810 ft 118 kts 41°
2026-05-06 04:26 -21.28365 55.40015 974 ft 119 kts 35°
2026-05-06 04:26 -21.27877 55.40702 1052 ft 125 kts 89°
2026-05-06 04:27 -21.28313 55.41531 1121 ft 133 kts 126°
2026-05-06 04:27 -21.28935 55.42306 1114 ft 140 kts 133°
2026-05-06 04:27 -21.29594 55.43082 1083 ft 141 kts 128°
2026-05-06 04:27 -21.30230 55.43885 1034 ft 140 kts 126°
2026-05-06 04:28 -21.30845 55.44670 978 ft 136 kts 129°
2026-05-06 04:28 -21.31459 55.45402 1013 ft 124 kts 126°
2026-05-06 04:28 -21.31990 55.46049 1060 ft 113 kts 130°
2026-05-06 04:28 -21.32687 55.46341 909 ft 122 kts 198°
2026-05-06 04:29 -21.33344 55.45741 726 ft 126 kts 227°
2026-05-06 04:29 -21.33919 55.45034 615 ft 123 kts 240°
2026-05-06 04:29 -21.33659 55.44273 426 ft 117 kts 327°
2026-05-06 04:29 -21.33102 55.43760 295 ft 96 kts 312°
2026-05-06 04:30 -21.32697 55.43242 177 ft 85 kts 312°
2026-05-06 04:30 -21.32332 55.42774 74 ft 78 kts 311°
2026-05-06 04:30 -21.32026 55.42387 60 ft 59 kts 308°
2026-05-06 04:30 -21.31756 55.42033 71 ft 74 kts 310°
2026-05-06 04:31 -21.31409 55.41571 206 ft 83 kts 311°
2026-05-06 04:31 -21.31029 55.41080 358 ft 87 kts 312°
2026-05-06 04:31 -21.30631 55.40559 495 ft 94 kts 309°
2026-05-06 04:31 -21.30188 55.39939 559 ft 110 kts 310°
2026-05-06 04:32 -21.29709 55.39295 705 ft 116 kts 305°
2026-05-06 04:32 -21.29747 55.38489 865 ft 121 kts 222°
2026-05-06 04:32 -21.30378 55.37888 996 ft 124 kts 222°
2026-05-06 04:32 -21.31021 55.37228 1026 ft 132 kts 218°
2026-05-06 04:33 -21.31856 55.37257 1017 ft 134 kts 130°
2026-05-06 04:33 -21.32478 55.37982 1051 ft 130 kts 133°
2026-05-06 04:33 -21.33099 55.38656 1097 ft 127 kts 128°
2026-05-06 04:33 -21.33611 55.39413 1104 ft 125 kts 127°
2026-05-06 04:34 -21.34180 55.40107 1089 ft 122 kts 130°
2026-05-06 04:34 -21.34768 55.40730 1104 ft 118 kts 134°
2026-05-06 04:34 -21.35299 55.41338 1133 ft 109 kts 129°
2026-05-06 04:34 -21.35809 55.41957 1071 ft 112 kts 127°
2026-05-06 04:35 -21.36312 55.42581 1057 ft 109 kts 131°
2026-05-06 04:35 -21.36791 55.43200 1063 ft 107 kts 123°
2026-05-06 04:35 -21.36939 55.43925 985 ft 109 kts 58°
2026-05-06 04:35 -21.36393 55.44484 910 ft 110 kts 41°
2026-05-06 04:36 -21.35786 55.45006 765 ft 116 kts 37°
2026-05-06 04:36 -21.35131 55.45531 652 ft 115 kts 36°
2026-05-06 04:36 -21.34411 55.45770 610 ft 114 kts 345°
2026-05-06 04:36 -21.33832 55.45225 552 ft 116 kts 295°
2026-05-06 04:37 -21.33556 55.44480 482 ft 101 kts 296°
2026-05-06 04:37 -21.33170 55.43859 304 ft 99 kts 310°
2026-05-06 04:37 -21.32740 55.43315 181 ft 93 kts 312°
2026-05-06 04:37 -21.32372 55.42824 83 ft 76 kts 312°
2026-05-06 04:38 -21.32079 55.42455 62 ft 58 kts 309°
2026-05-06 04:38 -21.31761 55.42032 99 ft 84 kts 309°
2026-05-06 04:38 -21.31380 55.41532 237 ft 90 kts 310°
2026-05-06 04:38 -21.30997 55.40983 405 ft 93 kts 307°
2026-05-06 04:39 -21.30622 55.40412 562 ft 95 kts 304°
2026-05-06 04:39 -21.30210 55.39783 659 ft 109 kts 310°
2026-05-06 04:39 -21.29598 55.39641 768 ft 105 kts 50°
2026-05-06 04:39 -21.29084 55.40228 895 ft 109 kts 39°
2026-05-06 04:40 -21.28474 55.40738 1049 ft 113 kts 38°
2026-05-06 04:40 -21.28044 55.41451 1039 ft 127 kts 91°
2026-05-06 04:40 -21.28544 55.42251 1054 ft 134 kts 131°
2026-05-06 04:40 -21.29148 55.43001 1120 ft 136 kts 127°
2026-05-06 04:41 -21.29797 55.43753 1201 ft 137 kts 134°
2026-05-06 04:41 -21.30457 55.44470 1191 ft 138 kts 129°
2026-05-06 04:41 -21.31083 55.45266 1059 ft 136 kts 126°
2026-05-06 04:41 -21.31602 55.46002 1077 ft 116 kts 123°
2026-05-06 04:42 -21.32134 55.46593 1055 ft 105 kts 133°
2026-05-06 04:42 -21.32793 55.46596 1023 ft 104 kts 215°
2026-05-06 04:42 -21.33345 55.46069 887 ft 111 kts 224°
2026-05-06 04:42 -21.33888 55.45452 745 ft 112 kts 232°
2026-05-06 04:43 -21.33823 55.44655 481 ft 119 kts 304°
2026-05-06 04:43 -21.33341 55.44066 387 ft 94 kts 314°
2026-05-06 04:43 -21.32945 55.43552 256 ft 88 kts 310°
2026-05-06 04:43 -21.32567 55.43077 128 ft 79 kts 310°
2026-05-06 04:44 -21.32239 55.42654 61 ft 68 kts 311°
2026-05-06 04:44 -21.31977 55.42325 61 ft 51 kts 310°
2026-05-06 04:44 -21.31720 55.41989 62 ft 73 kts 313°
2026-05-06 04:44 -21.31358 55.41499 151 ft 89 kts 308°
2026-05-06 04:45 -21.30958 55.40932 223 ft 104 kts 307°
2026-05-06 04:45 -21.30489 55.40302 380 ft 112 kts 309°
2026-05-06 04:45 -21.29956 55.39659 530 ft 115 kts 324°
2026-05-06 04:45 -21.29237 55.39642 663 ft 115 kts 45°
2026-05-06 04:46 -21.28688 55.40253 793 ft 115 kts 44°
2026-05-06 04:46 -21.28130 55.40868 950 ft 116 kts 44°
2026-05-06 04:46 -21.27555 55.41491 1074 ft 120 kts 41°
2026-05-06 04:46 -21.27217 55.42286 1054 ft 130 kts 102°
2026-05-06 04:47 -21.27774 55.43054 1099 ft 134 kts 129°
2026-05-06 04:47 -21.28432 55.43782 1128 ft 137 kts 132°
2026-05-06 04:47 -21.29074 55.44552 1144 ft 140 kts 126°
2026-05-06 04:47 -21.29702 55.45354 1099 ft 140 kts 129°
2026-05-06 04:48 -21.30318 55.46074 1102 ft 127 kts 128°
2026-05-06 04:48 -21.30898 55.46742 1104 ft 118 kts 126°
2026-05-06 04:48 -21.31410 55.47404 1107 ft 114 kts 130°
2026-05-06 04:48 -21.31943 55.48024 1109 ft 112 kts 129°
2026-05-06 04:49 -21.32588 55.48500 997 ft 123 kts 171°
2026-05-06 04:49 -21.33123 55.48274 907 ft 129 kts 216°
2026-05-06 04:49 -21.33795 55.47619 769 ft 133 kts 225°
2026-05-06 04:49 -21.34717 55.46741 617 ft 130 kts 219°
2026-05-06 04:50 -21.35098 55.46248 624 ft 125 kts 240°
2026-05-06 04:50 -21.34958 55.45405 626 ft 122 kts 305°
2026-05-06 04:50 -21.34317 55.44821 530 ft 115 kts 324°
2026-05-06 04:50 -21.33677 55.44358 359 ft 108 kts 322°
2026-05-06 04:51 -21.33172 55.43840 353 ft 95 kts 312°
2026-05-06 04:51 -21.32769 55.43325 220 ft 83 kts 310°
2026-05-06 04:51 -21.32418 55.42880 82 ft 74 kts 311°
2026-05-06 04:51 -21.32123 55.42513 62 ft 55 kts 311°
2026-05-06 04:52 -21.31959 55.42299 61 ft 19 kts 311°
2026-05-06 04:52 -21.31895 55.42229 61 ft 9 kts 292°
2026-05-06 04:52 -21.31933 55.42263 61 ft 15 kts 124°
2026-05-06 04:52 -21.32030 55.42394 62 ft 28 kts 129°
2026-05-06 04:53 -21.32146 55.42551 62 ft 18 kts 102°
2026-05-06 04:53 -21.32062 55.42646 67 ft 15 kts 43°
2026-05-06 04:53 -21.32033 55.42700 65 ft 8 kts 37°
2026-05-06 04:53 -21.32013 55.42662 67 ft 11 kts 223°
2026-05-06 04:54 -21.32023 55.42652 65 ft 0 kts 216°